sat.trackr.live / text

‹ back to catalog

WEINA 2

NORAD 47303 · 2020-103B

PAYLOAD ACTIVE UNKNOWN

§ Identity

Operator
Country
PRC
Launch date
2020-12-27
Launch site
JSC
Launch vehicle
Mass (kg)
RCS (m²)

External: N2YO · Heavens-Above · Gunter

§ Orbital elements

Epoch: 2026-05-25T05:07:31.965888Z

Period
98.29 min
Inclination
98.0562°
Eccentricity
0.0000863
Mean motion
14.64996671 rev/d
Perigee alt
676.5 km
Apogee alt
677.7 km
Semi-major
7,055.2 km
B*
1.8977e-4
RAAN
34.8722°
Arg perigee
293.5838°
Mean anomaly
66.5274°
Rev number
28,836

§ Raw data

WEINA 21 47303U 20103B   26145.21356442  .00000970  00000+0  18977-3 0  99982 47303  98.0562  34.8722 0000863 293.5838  66.5274 14.64996671288360

JSON: /api/v1/satellites/47303 · /tle

For live sub-satellite position, see the globe view (requires WebGL).

§ Visibility from observer

Set your observer location to see the next 7 days of passes ≥ 10°. The values pass through the URL so the page stays shareable.

No JS? Fill the form by hand. The geolocation button needs JavaScript.